Preview of NWS' New Version of Forecast
This preview is not operational and should not be used for support decisions.

Regional Weather Roundup (RWR)

Issued by National Weather Service (NWS)

                            
000
ASCA42 TJSJ 260310
RWRPR 
PUERTO RICO/U.S. VIRGIN ISLANDS HOURLY WEATHER ROUNDUP
NATIONAL WEATHER SERVICE SAN JUAN PR
1100 PM AST MON MAR 25 2019

PRZ001>002-007>008-010-260400-
PUERTO RICO
  
CITY           SKY/WX    TMP DP  RH WIND       PRES   REMARKS
SAN JUAN LMM   PTCLDY    77  70  78 SE3       30.02S                  
CEIBA          PTCLDY    79  70  73 SE6       30.04S                  
$$

VIZ001>002-260400-
U.S. VIRGIN ISLANDS
  
CITY           SKY/WX    TMP DP  RH WIND       PRES   REMARKS
CHARLOTTE AMA  CLEAR     79  70  73 E10       30.02S                  
$$

HOURLY WEATHER ROUNDUP FOR THE NEWS MEDIA
  
CITY           SKY/WX    TMP DP  RH WIND       PRES   REMARKS
ORLANDO        FAIR      71  61  70 W10       30.05R                  
NEW YORK       CLOUDY    44  35  70 SW6       30.09R                  
NEWARK         CLOUDY    47   5  18 N15G22    30.09R                  
CHICAGO        FAIR      31  17  56 N9        30.36R WCI  23          
HARTFORD       FAIR      37  32  82 CALM      30.08S                  
BOSTON         FAIR      37  26  64 S3        30.10R                  
DALLAS         CLEAR     63  49  60 N7        30.23R                  
PHILADELPHIA   CLOUDY    41  36  82 N10       30.10F                  
LOS ANGELES    PTCLDY    59  45  59 SW9       30.05S                  
WASHINGTON DC  CLOUDY    43  37  79 N12       30.08R